Terminal Aerodrome Forecast
Issued by NWS Cleveland, OH

Home | Current Version | Previous Version | Graphics & Text | Print | Product List | Glossary On
Versions: 1 2 3 4 5 6 7 8 9 10 11 12 13 14 15 16 17
000
FTUS41 KCLE 031130
TAFERI
TAF
KERI 031130Z 0312/0412 00000KT P6SM OVC012
     FM031300 01005KT P6SM BKN060
     FM040400 VRB03KT P6SM SCT250
     FM041000 VRB03KT P6SM BKN100=

USA.gov is the U.S. government's official web portal to all federal, state and local government web resources and services.